St. Joseph, KS

9:56 AM CDT on September 15, 2019 (GMT -0500)
Rosecrans Memorial

Weather History for KSTJ - July, 2019

Change the Weather History Date:

Saturday, July 13, 2019

  Actual Average Record
Temperature  
Mean Temperature 79 °F 77 °F  
Max Temperature 91 °F 87 °F 107 °F (1954)
Min Temperature 67 °F 67 °F 47 °F (1975)
Degree Days  
Heating Degree Days 0 0  
Month to date heating degree days 0 0  
Since 1 June heating degree days 1 8  
Since 1 July heating degree days 0 0  
Cooling Degree Days 14 12  
Month to date cooling degree days 192 154  
Year to date cooling degree days 586 534  
Since 1 June cooling degree days 485 421  
Growing Degree Days 30 (Base 50)    
Moisture  
Dew Point 68 °F    
Average Humidity 69    
Maximum Humidity 93    
Minimum Humidity 44    
Precipitation  
Precipitation 0.00 in 0.18 in 3.36 in (1915)
Month to date precipitation 0.22 1.97  
Year to date precipitation 21.49 19.10  
Sea Level Pressure  
Sea Level Pressure 30.00 in    
Wind  
Wind Speed 3 mph (SSE)    
Max Wind Speed 15 mph    
Max Gust Speed 19 mph    
Visibility 9 miles    
Events      
T = Trace of Precipitation, MM = Missing Value Source: NWS Daily Summary

Daily Weather History Graph

Daily Weather History Graph

Search for Another Location

Airport or City:

Astronomy

Jul. 13, 2019 Rise Set
Actual Time 6:02 AM CDT 8:47 PM CDT
Civil Twilight 5:30 AM CDT 9:19 PM CDT
Nautical Twilight 4:50 AM CDT 9:59 PM CDT
Astronomical Twilight 4:05 AM CDT 10:44 PM CDT
Moon 6:11 PM CDT (7/13) 3:23 AM CDT (7/13)
Length of Visible Light 15h 49m
Length of Day
14h 45m
Waxing Gibbous, 90% of the Moon is Illuminated
Jul 13
Waxing Gibbous
Jul 16
Full
Jul 24
Last Quarter
Jul 31
New
Aug 7
First Quarter

Hourly Weather History & Observations

Time (CDT) Temp. Heat Index Dew Point Humidity Pressure Visibility Wind Dir Wind Speed Gust Speed Precip Events Conditions
12:53 AM 72.0 °F - 68.0 °F 87% 29.94 in 10.0 mi SSW 4.6 mph - N/A   Clear
1:53 AM 72.0 °F - 66.9 °F 84% 29.95 in 10.0 mi South 3.5 mph - N/A   Clear
2:53 AM 68.0 °F - 64.9 °F 90% 29.98 in 8.0 mi Calm Calm - N/A   Clear
3:53 AM 70.0 °F - 66.0 °F 87% 29.98 in 10.0 mi Calm Calm - N/A   Clear
4:53 AM 68.0 °F - 66.0 °F 93% 29.98 in 2.5 mi Calm Calm - N/A   Clear
5:04 AM 68.0 °F - 66.0 °F 93% 30.02 in 7.0 mi Calm Calm - N/A   Clear
5:53 AM 68.0 °F - 66.0 °F 93% 30.00 in 8.0 mi Calm Calm - N/A   Clear
6:53 AM 69.1 °F - 66.0 °F 90% 30.04 in 5.0 mi North 3.5 mph - N/A   Clear
7:53 AM 73.0 °F - 69.1 °F 87% 30.05 in 7.0 mi Calm Calm - N/A   Clear
8:36 AM 75.9 °F - 70.0 °F 82% 30.06 in 1.0 mi SSE 4.6 mph - N/A   Haze
8:39 AM 75.9 °F - 70.0 °F 82% 30.06 in 5.0 mi SSE 4.6 mph - N/A   Haze
8:53 AM 78.1 °F - 69.1 °F 74% 30.04 in 10.0 mi South 3.5 mph - N/A   Clear
9:53 AM 81.0 °F 83.8 °F 68.0 °F 65% 30.04 in 10.0 mi Variable 3.5 mph - N/A   Clear
10:53 AM 84.0 °F 87.8 °F 69.1 °F 61% 30.02 in 10.0 mi South 4.6 mph - N/A   Clear
11:53 AM 86.0 °F 89.4 °F 68.0 °F 55% 30.03 in 10.0 mi Variable 3.5 mph - N/A   Clear
12:53 PM 88.0 °F 92.1 °F 69.1 °F 53% 30.02 in 10.0 mi South 8.1 mph - N/A   Clear
1:53 PM 89.1 °F 94.1 °F 70.0 °F 53% 29.99 in 10.0 mi SSE 10.4 mph - N/A   Clear
2:53 PM 90.0 °F 92.8 °F 66.9 °F 46% 30.00 in 10.0 mi SE 9.2 mph - N/A   Clear
3:53 PM 90.0 °F 92.4 °F 66.0 °F 45% 29.98 in 10.0 mi SSE 11.5 mph - N/A   Clear
4:53 PM 90.0 °F 92.4 °F 66.0 °F 45% 29.99 in 10.0 mi SSE 4.6 mph - N/A   Clear
5:53 PM 90.0 °F 92.4 °F 66.0 °F 45% 29.97 in 10.0 mi SSE 3.5 mph - N/A   Clear
6:53 PM 91.0 °F 93.8 °F 66.0 °F 44% 29.96 in 10.0 mi Calm Calm - N/A   Clear
7:53 PM 86.0 °F 89.4 °F 68.0 °F 55% 29.97 in 10.0 mi SE 5.8 mph - N/A   Clear
8:53 PM 82.0 °F 85.5 °F 69.1 °F 65% 29.98 in 10.0 mi Calm Calm - N/A   Clear
9:53 PM 79.0 °F - 72.0 °F 79% 30.00 in 10.0 mi Calm Calm - N/A   Clear
10:53 PM 77.0 °F - 72.0 °F 84% 30.01 in 10.0 mi Calm Calm - N/A   Clear
11:53 PM 75.9 °F - 71.1 °F 85% 30.02 in 9.0 mi Calm Calm - N/A   Clear